GW6639 Weather Reports


Display with metric or nautical units.
time (UTC)temp
F
wind
direction
speed
MPH
gust
MPH
rain 1hr
in
rain 24hr
in
rain mn
in
humidity
%
barometer
mb
20260504130514 36 358 4.0 6.0 0.00 0.00 0.00 77 1011.0
20260504110513 42 334 4.0 5.0 0.00 0.00 0.00 58 1009.6
20260504100506 42 312 4.0 6.0 0.00 0.00 0.00 56 1010.1
20260504081506 43 313 5.0 7.0 0.00 0.00 0.00 59 1010.5
20260504081010 42 314 5.0 7.0 0.00 0.00 0.00 60 1010.5
20260504080514 42 313 5.0 7.0 0.00 0.00 0.00 60 1010.5
20260504050508 41 307 4.0 6.0 0.00 0.00 0.00 73 1011.8
20260504050013 41 311 4.0 6.0 0.00 0.00 0.00 74 1011.8
20260504045506 42 312 4.0 5.0 0.00 0.00 0.00 74 1011.8
20260504045012 42 314 3.0 4.0 0.00 0.00 0.00 74 1011.8
20260504044516 42 312 4.0 5.0 0.00 0.00 0.00 73 1011.8
20260504044010 42 312 4.0 6.0 0.00 0.00 0.00 74 1011.8
20260504043514 42 305 4.0 5.0 0.00 0.00 0.00 74 1011.8
20260504043008 42 310 3.0 4.0 0.00 0.00 0.00 74 1011.8
20260504042514 42 312 3.0 5.0 0.00 0.00 0.00 73 1011.8
20260504042008 42 307 3.0 5.0 0.00 0.00 0.00 72 1012.3
20260504041512 42 306 3.0 4.0 0.00 0.00 0.00 73 1012.3
20260504041006 42 308 3.0 5.0 0.00 0.00 0.00 72 1012.3
20260504040512 42 307 3.0 5.0 0.00 0.00 0.00 72 1012.3
20260504040006 42 318 4.0 4.0 0.00 0.00 0.00 72 1012.3
20260504035510 42 309 3.0 5.0 0.00 0.00 0.00 72 1012.3
20260504035015 42 305 3.0 4.0 0.00 0.00 0.00 72 1012.3
20260504034510 42 320 3.0 4.0 0.00 0.00 0.00 71 1012.3
20260504034014 42 316 2.0 4.0 0.00 0.00 0.00 71 1012.3
20260504033509 42 314 3.0 4.0 0.00 0.00 0.00 71 1012.3
20260504033013 42 305 3.0 4.0 0.00 0.00 0.00 72 1012.3
20260504032508 42 316 2.0 4.0 0.00 0.00 0.00 73 1012.3
20260504032012 41 312 2.0 2.0 0.00 0.00 0.00 74 1012.3
20260504031506 41 333 1.0 3.0 0.00 0.00 0.00 74 1012.3
20260504031011 42 321 1.0 2.0 0.00 0.00 0.00 73 1012.3
20260504030515 42 320 2.0 3.0 0.00 0.00 0.00 73 1012.3
20260504030011 42 320 2.0 3.0 0.00 0.00 0.00 74 1012.3
20260504025515 42 329 1.0 2.0 0.00 0.00 0.00 74 1012.3
20260504025009 42 308 2.0 4.0 0.00 0.00 0.00 73 1012.3
20260504024513 42 326 1.0 3.0 0.00 0.00 0.00 73 1012.3
20260504024010 42 340 1.0 2.0 0.00 0.00 0.00 72 1012.3
20260504023513 42 307 2.0 3.0 0.00 0.00 0.00 72 1012.3
20260504023007 42 315 2.0 3.0 0.00 0.00 0.00 70 1012.3
20260504022511 42 321 1.0 3.0 0.00 0.00 0.00 69 1012.3
20260504022007 43 315 1.0 2.0 0.00 0.00 0.00 67 1012.3
20260504021511 44 316 2.0 4.0 0.00 0.00 0.00 66 1012.3
20260504021015 44 326 2.0 4.0 0.00 0.00 0.00 65 1012.3
20260504020509 44 333 1.0 2.0 0.00 0.00 0.00 64 1012.3
20260504020015 45 332 1.0 2.0 0.00 0.00 0.00 64 1012.3
20260504015509 45 336 1.0 2.0 0.00 0.00 0.00 63 1012.3
20260504015013 46 318 2.0 3.0 0.00 0.00 0.00 62 1012.7
20260504014508 46 335 1.0 2.0 0.00 0.00 0.00 62 1012.7
20260504014012 47 333 2.0 4.0 0.00 0.00 0.00 61 1012.7
20260504013508 47 335 1.0 3.0 0.00 0.00 0.00 60 1012.7
20260504013012 48 325 2.0 3.0 0.00 0.00 0.00 59 1012.7
20260504012506 49 316 2.0 3.0 0.00 0.00 0.00 58 1012.7
20260504012010 49 346 1.0 2.0 0.00 0.00 0.00 58 1012.7
20260504011515 49 313 2.0 3.0 0.00 0.00 0.00 57 1012.7
20260504011010 49 327 2.0 2.0 0.00 0.00 0.00 58 1012.7
20260504010514 49 342 1.0 2.0 0.00 0.00 0.00 57 1013.2
20260504010009 49 326 2.0 4.0 0.00 0.00 0.00 56 1013.2
20260504005513 50 322 2.0 4.0 0.00 0.00 0.00 56 1013.2
20260504005008 50 325 2.0 5.0 0.00 0.00 0.00 55 1013.2
20260504004512 49 306 3.0 5.0 0.00 0.00 0.00 56 1013.2
20260504004006 49 333 2.0 4.0 0.00 0.00 0.00 56 1013.2
20260504003510 49 345 1.0 4.0 0.00 0.00 0.00 56 1013.2
20260504003006 50 334 2.0 9.0 0.00 0.00 0.00 55 1013.2
20260504002510 51 349 1.0 2.0 0.00 0.00 0.00 53 1013.6
20260504002015 51 309 4.0 6.0 0.00 0.00 0.00 52 1013.6
20260504001509 51 309 3.0 7.0 0.00 0.00 0.00 52 1013.6
20260504001013 51 328 2.0 3.0 0.00 0.00 0.00 51 1013.6
20260504000508 51 342 2.0 5.0 0.00 0.00 0.00 51 1013.6
20260504000012 51 335 3.0 7.0 0.00 0.00 0.00 51 1013.6
20260503235506 52 321 5.0 9.0 0.00 0.00 0.00 50 1013.6
20260503235011 52 325 4.0 6.0 0.00 0.00 0.00 50 1013.6
20260503234517 53 312 3.0 4.0 0.00 0.00 0.00 50 1014.1
20260503234011 53 337 2.0 3.0 0.00 0.00 0.00 50 1014.1
20260503233515 53 344 2.0 3.0 0.00 0.00 0.00 49 1014.1
20260503233009 53 354 2.0 3.0 0.00 0.00 0.00 50 1014.1
20260503232513 53 350 2.0 3.0 0.00 0.00 0.00 49 1014.1
20260503232009 52 307 3.0 6.0 0.00 0.00 0.00 50 1014.1
20260503231513 52 308 4.0 5.0 0.00 0.00 0.00 49 1014.1
20260503231007 52 317 4.0 7.0 0.00 0.00 0.00 50 1014.1
20260503230511 53 339 2.0 4.0 0.00 0.00 0.00 52 1014.1
20260503230053 53 334 2.0 4.0 0.00 0.00 0.00 53 1014.1
20260503225511 52 356 1.0 3.0 0.00 0.00 0.00 52 1014.1
20260503225006 52 325 2.0 4.0 0.00 0.00 0.00 52 1014.5
20260503224511 52 340 2.0 5.0 0.00 0.00 0.00 53 1014.5
20260503224015 52 341 3.0 5.0 0.00 0.00 0.00 52 1014.5
20260503223509 53 315 3.0 6.0 0.00 0.00 0.00 52 1014.5
20260503223013 53 323 3.0 6.0 0.00 0.00 0.00 51 1014.5
20260503222509 53 319 2.0 4.0 0.00 0.00 0.00 51 1014.5
20260503222013 52 320 2.0 6.0 0.00 0.00 0.00 54 1014.5
20260503221507 52 312 3.0 5.0 0.00 0.00 0.00 55 1014.5
20260503221011 53 315 3.0 6.0 0.00 0.00 0.00 57 1014.5
20260503220507 51 321 3.0 6.0 0.00 0.00 0.00 62 1014.5
20260503220011 47 61 2.0 5.0 0.00 0.00 0.00 66 1014.5
20260503215515 47 283 4.0 8.0 0.00 0.00 0.00 67 1014.9
20260503215010 46 253 2.0 4.0 0.00 0.00 0.00 71 1014.9
20260503214514 44 266 3.0 6.0 0.00 0.00 0.00 74 1014.9
20260503214009 44 259 4.0 8.0 0.00 0.00 0.00 75 1015.4
20260503213515 43 299 3.0 6.0 0.00 0.00 0.00 75 1015.4
20260503213007 43 273 4.0 11.0 0.00 0.00 0.00 75 1015.8
20260503212512 43 289 4.0 7.0 0.00 0.00 0.00 74 1015.8
20260503212007 43 302 4.0 7.0 0.00 0.00 0.00 73 1015.8
20260503211512 44 306 4.0 10.0 0.00 0.00 0.00 71 1015.8
20260503211006 45 312 5.0 8.0 0.00 0.00 0.00 67 1015.8
20260503210510 47 293 5.0 8.0 0.00 0.00 0.00 62 1016.3
20260503210014 49 291 3.0 7.0 0.00 0.00 0.00 58 1016.3
20260503205510 50 297 2.0 6.0 0.00 0.00 0.00 57 1015.8
20260503205014 50 313 2.0 5.0 0.00 0.00 0.00 56 1015.8
20260503204508 51 302 4.0 8.0 0.00 0.00 0.00 55 1015.8
20260503204012 52 327 2.0 8.0 0.00 0.00 0.00 54 1015.8
20260503203506 52 318 2.0 6.0 0.00 0.00 0.00 54 1015.8
20260503203012 53 306 3.0 7.0 0.00 0.00 0.00 53 1015.8
20260503202506 54 274 3.0 7.0 0.00 0.00 0.00 53 1015.8
20260503202010 56 269 2.0 7.0 0.00 0.00 0.00 54 1015.8
20260503201515 54 309 2.0 6.0 0.00 0.00 0.00 55 1015.8
20260503201011 52 312 2.0 9.0 0.00 0.00 0.00 58 1015.8
20260503200514 53 327 2.0 4.0 0.00 0.00 0.00 57 1016.3
20260503200008 53 274 2.0 6.0 0.00 0.00 0.00 60 1016.3
20260503195514 50 295 2.0 4.0 0.00 0.00 0.00 69 1016.3
20260503195007 49 335 1.0 2.0 0.00 0.00 0.00 65 1016.3
20260503194513 52 276 3.0 7.0 0.00 0.00 0.00 56 1016.3
20260503194006 55 228 4.0 9.0 0.00 0.00 0.00 53 1016.3
20260503193511 55 259 3.0 6.0 0.00 0.00 0.00 54 1016.7
20260503193015 54 280 3.0 7.0 0.00 0.00 0.00 54 1016.7
20260503192509 53 304 3.0 6.0 0.00 0.00 0.00 55 1016.7
20260503192015 54 318 2.0 6.0 0.00 0.00 0.00 56 1016.7
20260503191509 53 306 3.0 6.0 0.00 0.00 0.00 55 1016.7
20260503191013 55 331 3.0 9.0 0.00 0.00 0.00 53 1016.7
20260503190507 55 333 2.0 6.0 0.00 0.00 0.00 54 1017.1
20260503190012 52 324 3.0 6.0 0.00 0.00 0.00 57 1017.1
20260503185507 52 304 2.0 6.0 0.00 0.00 0.00 57 1017.1
20260503185011 52 315 3.0 6.0 0.00 0.00 0.00 57 1017.1
20260503184505 52 334 2.0 4.0 0.00 0.00 0.00 57 1017.6
20260503184010 51 318 3.0 5.0 0.00 0.00 0.00 59 1017.6
20260503183514 49 322 3.0 4.0 0.00 0.00 0.00 60 1017.6
20260503183010 51 334 2.0 4.0 0.00 0.00 0.00 60 1017.6
20260503182514 51 314 3.0 6.0 0.00 0.00 0.00 60 1017.6
20260503182008 52 334 3.0 6.0 0.00 0.00 0.00 59 1017.6
20260503181513 52 347 2.0 4.0 0.00 0.00 0.00 61 1017.6
20260503181007 48 348 1.0 4.0 0.00 0.00 0.00 63 1018.0
20260503180512 48 332 2.0 4.0 0.00 0.00 0.00 63 1018.0
20260503180006 48 341 3.0 5.0 0.00 0.00 0.00 62 1018.0
20260503175510 49 336 2.0 5.0 0.00 0.00 0.00 60 1018.0
20260503175015 50 308 4.0 6.0 0.00 0.00 0.00 59 1018.0
20260503174509 50 348 1.0 2.0 0.00 0.00 0.00 61 1018.0
20260503174015 49 332 3.0 5.0 0.00 0.00 0.00 61 1018.0
20260503173508 48 326 4.0 8.0 0.00 0.00 0.00 62 1018.0
20260503173013 50 326 2.0 4.0 0.00 0.00 0.00 61 1018.0
20260503172507 50 315 2.0 4.0 0.00 0.00 0.00 61 1018.5
20260503172011 51 334 2.0 4.0 0.00 0.00 0.00 60 1018.0
20260503171506 52 339 2.0 4.0 0.00 0.00 0.00 59 1018.0
20260503171011 51 354 2.0 3.0 0.00 0.00 0.00 62 1018.5
20260503170515 50 326 3.0 8.0 0.00 0.00 0.00 63 1018.5
20260503151010 44 324 5.0 9.0 0.00 0.00 0.00 71 1018.0
20260503150514 44 321 5.0 12.0 0.00 0.00 0.00 72 1018.0